Simultaneous Nadir Overpasses (SNOs) Predictions

Prediction of SNOs between NOAA-19 and NPP Satellite Orbit:

Table of predicted SNOs for the next 14.0 days since TLE Epoch: 9/30/2016
Index Date (NOAA-19) Time (NOAA-19) Lat,Lon (NOAA-19) SZA (NOAA-19 ) Date (NPP) Time (NPP) Lat,Lon (NPP) SZA (NPP ) Distance(km) Time Diff (sec)
1 10/05/2016 15:22:35 80.96,-102.84 89.11 10/05/2016 15:23:50 80.96,-102.68 89.05 2.78 75
2 10/05/2016 16:13:36 -80.96, 64.39 90.88 10/05/2016 16:14:35 -80.96, 64.49 90.92 1.81 59
3 10/05/2016 17:04:36 80.97,-128.00 89.10 10/05/2016 17:05:20 80.96,-128.08 89.08 1.80 44
4 10/05/2016 17:55:37 -80.97, 39.22 90.89 10/05/2016 17:56:05 -80.96, 39.09 90.89 2.31 28
5 10/05/2016 18:46:38 80.97,-153.53 89.13 10/05/2016 18:46:50 80.96,-153.49 89.11 1.12 12
6 10/05/2016
